Home > Weather > Rennes > Past weeks

Flag for France Past Weather in Rennes, Brittany, France — Yesterday and Last 2 Weeks

Now
61 °F

Cool.


Feels Like: 61 °F
Forecast: 57 / 76 °F
Wind: 3 mph from Northwest

Location: Rennes Airport

Current Time: Aug 27, 2016 at 5:18:24 AM

Latest Report: Aug 27, 2016 at 5:00 AM


Visibility: N/A

Pressure: 29.98 "Hg

Humidity: 88%

Dew Point: 57 °F

Location of RennesLocation

Past Weather in Rennes — Graph

°F

Rennes Temperature Yesterday

Maximum temperature yesterday: 82 °F (at 5:00 PM)
Minimum temperature yesterday: 61 °F (at 5:00 AM)
Average temperature yesterday: 70 °F

High & Low Weather Summary for the Past Weeks

 TemperatureHumidityPressure
High97 °F (Aug 23, 5:00 PM)100% (Aug 12, 4:00 AM)30.36 "Hg (Aug 12, 4:00 AM)
Low50 °F (Aug 12, 4:30 AM)24% (Aug 23, 8:00 PM)29.74 "Hg (Aug 19, 10:30 AM)
Average69 °F70%30.06 "Hg
* Reported Aug 12 4:00 AM — Aug 27 4:00 AM, Rennes, Weather by CustomWeather, © 2016

Note: Actual official high and low records may vary slightly from our data, if they occured in-between our weather recording intervals... More about our weather records

Advertising

Rennes Weather History for the Previous 24 Hours

Scroll right to see more
 ConditionsComfort  
Time TempWeatherWind HumidityBarometerVisibility
4:00 AM
Sat, Aug 27
61 °FClear.3 mph94%29.98 "Hg10 mi
3:30 AM61 °FClear.6 mph94%30.01 "Hg10 mi
3:00 AM61 °FClear.3 mph94%30.01 "Hg10 mi
2:30 AM63 °FMild.5 mph88%30.01 "HgN/A
2:00 AM63 °FMild.5 mph88%30.01 "HgN/A
1:30 AM63 °FMild.3 mph94%30.01 "HgN/A
1:00 AM64 °FMild.5 mph88%30.01 "HgN/A
12:30 AM64 °FMild.6 mph88%30.04 "HgN/A
12:00 AM66 °FClear.7 mph83%30.04 "Hg10 mi
11:30 PM
Fri, Aug 26
66 °FClear.6 mph83%30.04 "Hg10 mi
11:00 PM66 °FClear.6 mph83%30.04 "Hg10 mi
10:30 PM68 °FClear.7 mph78%30.04 "Hg10 mi
10:00 PM70 °FClear.7 mph73%30.04 "Hg10 mi
9:30 PM70 °FSunny.9 mph73%30.04 "Hg10 mi
9:00 PM72 °FMild.9 mph73%30.01 "HgN/A
8:30 PM73 °FMild.10 mph69%30.01 "HgN/A
8:00 PM75 °FSunny.12 mph69%30.01 "Hg10 mi
7:30 PM77 °FWarm.12 mph65%30.01 "HgN/A
7:00 PM79 °FWarm.12 mph61%30.01 "HgN/A
6:30 PM79 °FWarm.9 mph61%30.04 "HgN/A
6:00 PM81 °FWarm.12 mph58%30.04 "HgN/A
5:30 PM81 °FWarm.12 mph58%30.04 "HgN/A
5:00 PM82 °FScattered clouds.9 mph55%30.04 "HgN/A
4:30 PM81 °FWarm.8 mph58%30.04 "HgN/A
4:00 PM81 °FPassing clouds.9 mph58%30.04 "HgN/A
3:30 PM81 °FPassing clouds.10 mph54%30.04 "HgN/A
3:00 PM79 °FWarm.13 mph54%30.07 "HgN/A
2:30 PM79 °FWarm.10 mph58%30.07 "HgN/A
2:00 PM77 °FWarm.12 mph61%30.04 "HgN/A
1:30 PM77 °FWarm.12 mph61%30.04 "HgN/A
1:00 PM77 °FWarm.13 mph57%30.04 "HgN/A
12:30 PM75 °FMild.13 mph61%30.04 "HgN/A
12:00 PM75 °FMild.10 mph65%30.07 "HgN/A
11:30 AM72 °FPassing clouds.13 mph69%30.07 "HgN/A
11:00 AM70 °FPassing clouds.13 mph73%30.07 "HgN/A
10:30 AM68 °FPartly sunny.13 mph78%30.07 "HgN/A
10:00 AM66 °FOvercast.15 mph83%30.07 "HgN/A
9:30 AM66 °FOvercast.15 mph83%30.07 "HgN/A
9:00 AM66 °FOvercast.12 mph83%30.07 "HgN/A
8:30 AM64 °FOvercast.12 mph88%30.04 "HgN/A
8:00 AM63 °FLow clouds.12 mph94%30.04 "Hg6 mi
7:30 AM63 °FPassing clouds.9 mph94%30.01 "Hg4 mi
7:00 AM63 °FMild.8 mph94%30.01 "Hg4 mi
6:30 AM63 °FMild.7 mph88%30.01 "Hg4 mi
6:00 AM63 °FMild.7 mph94%30.01 "Hg4 mi
5:30 AM61 °FCool.6 mph94%30.01 "Hg4 mi
5:00 AM61 °FClear.5 mph94%29.98 "Hg4 mi
Weather by CustomWeather, © 2016

See weather overviewHow to use our weather pages